www.pogodaiklimat.ru

Погода и климат >> Архив погоды >> Австрия >> Бад-Аусзе


ПОГОДА в Бад-Аусзе

  • Прогноз погоды в Бад-Аусзе
  • Монитор погоды в Бад-Аусзе

АРХИВ ПОГОДЫ в Бад-Аусзе

Время (UTC), дата Ветер
(напр.,м/с)
 
Видим.   Явления Облачность Т
(С)
Тd
(С)
f
(%)
Тe
(С)
Тes
(С)
Комфортность P
(гПа)
Po
(гПа)
Тmin
(С)
Tmax
(С)
R
(мм)
R24
(мм)
S
(см)
10 14.08 ЮЗ 1 н/о н/о +13.6 +10.9 84 +14 +14 1020.0 934.8 0.0
11 14.08 СЗ 1 н/о н/о +14.0 +8.6 70 +14 +14 1020.1 934.9 0.0
12 14.08 ЮЗ 1 н/о {осадки} н/о +14.5 +10.5 77 +15 +15 1020.1 935.1 0.1
13 14.08 штиль 0 н/о н/о +17.3 +9.2 59 +17 +17 1018.6 934.5
14 14.08 штиль 0 н/о н/о +17.7 +6.9 49 +18 +18 1018.0 934.0
15 14.08 штиль 0 н/о н/о +17.4 +6.9 50 +17 +17 1017.6 933.6
16 14.08 штиль 0 н/о н/о +16.9 +7.6 54 +17 +17 1017.6 933.4
17 14.08 ЮЗ 1 н/о н/о +16.9 +7.8 55 +18 +18 1017.4 933.3
18 14.08 ЮЗ 2 н/о н/о +13.9 +7.5 65 +13 +13 1018.5 933.4 +11.1 +18.8 0.1
19 14.08 В 1 н/о н/о +11.8 +9.2 84 +12 +12 1019.7 934.0
20 14.08 штиль 0 н/о н/о +10.6 +9.0 90 +10 +10 1020.6 934.4
21 14.08 штиль 0 н/о н/о +10.0 +8.8 92 +9 +9 1020.7 934.4
22 14.08 штиль 0 н/о н/о +9.0 +8.1 94 +8 +8 1021.2 934.5
23 14.08 штиль 0 н/о н/о +8.3 +7.6 95 +7 +7 1021.4 934.5
00 15.08 штиль 0 н/о н/о +8.1 +7.4 95 +7 +7 1021.4 934.4
01 15.08 Ю 1 н/о н/о +8.2 +7.3 94 +7 +7 1021.0 934.1
02 15.08 С 1 н/о н/о +7.3 +6.7 96 +6 +6 1020.8 933.6 0.0
03 15.08 С 1 н/о н/о +7.2 +6.5 95 +6 +6 1020.6 933.4 0.0
04 15.08 С 1 н/о н/о +7.4 +6.5 94 +6 +6 1020.4 933.3
05 15.08 СВ 1 н/о н/о +7.9 +7.0 94 +7 +7 1020.3 933.3
06 15.08 В 1 н/о н/о +9.4 +7.2 86 +9 +9 1019.4 933.0 +6.6 +14.2 0.0
07 15.08 В 1 н/о н/о +11.2 +7.3 77 +11 +11 1018.4 932.6
08 15.08 В 1 н/о н/о +13.7 +7.3 65 +14 +14 1017.2 932.2
09 15.08 В 1 н/о н/о +15.9 +7.9 59 +17 +17 1015.9 931.6
10 15.08 штиль 0 н/о н/о +18.3 +9.1 55 +19 +19 1014.6 931.1
11 15.08 штиль 0 н/о н/о +20.4 +8.4 46 +21 +21 комфорт 1013.3 930.5
12 15.08 СВ 1 н/о н/о +21.2 +7.1 40 +22 +22 комфорт 1012.9 930.3
13 15.08 СЗ 2 н/о н/о +22.2 +6.9 37 +23 +23 комфорт 1012.5 930.2
14 15.08 СЗ 1 н/о н/о +20.6 +7.3 42 +23 +23 комфорт 1013.6 930.8
15 15.08 СЗ 1 н/о в посл. час осадки н/о +19.5 +7.9 47 +21 +21 комфорт 1013.9 930.8 0.0
16 15.08 СЗ 2 н/о н/о +18.5 +10.1 58 +19 +19 1014.2 930.8
17 15.08 З 1 н/о н/о +18.4 +10.5 60 +20 +20 1014.2 930.8 0.0
18 15.08 СЗ 1 н/о {осадки} н/о +17.2 +10.1 63 +18 +18 1015.1 931.3 +9.2 +23.0 0.0
19 15.08 З 1 н/о осадки н/о +15.9 +11.5 75 +17 +17 1016.1 931.9 0.7
20 15.08 штиль 0 н/о в посл. час осадки н/о +14.6 +13.3 92 +14 +14 1016.8 932.2 0.1
21 15.08 СВ 1 н/о {осадки} н/о +14.0 +13.0 94 +14 +14 1017.7 932.9 0.8
22 15.08 Ю 1 н/о н/о +13.5 +12.7 95 +14 +14 1018.1 933.1
23 15.08 штиль 0 н/о н/о +13.4 +12.7 96 +13 +13 1018.2 933.1
00 16.08 ЮЗ 1 н/о осадки н/о +13.7 +12.2 91 +14 +14 1018.3 933.3 0.9
01 16.08 штиль 0 н/о в посл. час осадки н/о +14.1 +11.1 82 +14 +14 1018.5 933.6 0.1
02 16.08 штиль 0 н/о н/о +13.0 +12.2 95 +12 +12 1018.6 933.4 0.0
03 16.08 ЮЗ 1 н/о в посл. час осадки н/о +12.7 +12.1 96 +13 +13 1019.0 933.7 0.8
04 16.08 штиль 0 н/о осадки н/о +12.4 +11.4 94 +12 +12 1019.7 934.2 2
05 16.08 Ю 1 н/о осадки н/о +12.5 +11.9 96 +12 +12 1019.9 934.4 2
06 16.08 Ю 1 н/о ливневой дождь н/о +12.6 +12.0 96 +13 +13 1020.1 934.6 +12.3 +17.4 8
07 16.08 Ю 1 н/о в посл. час осадки н/о +13.4 +12.4 94 +13 +13 1020.1 934.9 0.2
08 16.08 Ю 1 н/о в посл. час осадки н/о +13.7 +12.4 92 +14 +14 1020.3 935.1 0.2
09 16.08 Ю 1 н/о в посл. час осадки {ливн. осадки} н/о +15.7 +13.2 85 +16 +16 1019.6 935.1 0.5
10 16.08 штиль 0 н/о н/о +16.2 +12.7 80 +16 +16 1019.5 935.1
11 16.08 З 1 н/о н/о +16.6 +10.7 68 +17 +17 1018.8 934.5
12 16.08 ЮЗ 1 н/о {ливн. осадки} н/о +18.7 +9.2 54 +20 +20 1017.6 934.0 0.5
13 16.08 штиль 0 н/о в посл. час осадки н/о +18.2 +9.0 55 +18 +18 1017.6 933.8 0.3
14 16.08 З 1 н/о осадки н/о +17.6 +9.5 59 +19 +19 1017.6 933.7 0.1
15 16.08 штиль 0 н/о {ливн. осадки} н/о +18.7 +10.0 57 +19 +19 1016.9 933.3 0.4
16 16.08 штиль 0 н/о н/о +19.4 +9.9 54 +20 +20 1016.4 933.1
17 16.08 Ю 1 н/о осадки н/о +17.8 +9.7 59 +19 +19 1016.7 932.9 0.1
18 16.08 ЮЗ 2 н/о {ливн. осадки} н/о +15.8 +9.0 64 +16 +16 1017.5 933.1 +12.5 +20.1 1
19 16.08 В 1 н/о н/о +13.4 +10.9 85 +14 +14 1018.5 933.4
20 16.08 С 1 н/о н/о +12.5 +10.7 89 +12 +12 1019.3 933.8
21 16.08 С 1 н/о н/о +11.2 +10.1 93 +11 +11 1019.5 933.6
22 16.08 С 1 н/о н/о +11.2 +9.6 90 +11 +11 1019.4 933.5
23 16.08 С 1 н/о н/о +10.2 +8.8 91 +10 +10 1019.4 933.2
00 17.08 СВ 1 н/о н/о +10.3 +8.7 90 +10 +10 1019.2 933.1
01 17.08 СВ 1 н/о н/о +9.7 +8.5 92 +9 +9 1019.0 932.7
02 17.08 СВ 1 н/о н/о +9.9 +8.5 91 +9 +9 1018.6 932.4
03 17.08 СВ 1 н/о н/о +9.2 +8.5 95 +8 +8 1018.9 932.5
04 17.08 С 1 н/о н/о +9.3 +8.6 95 +9 +9 1019.0 932.6
05 17.08 СВ 1 н/о н/о +9.6 +8.7 94 +9 +9 1019.0 932.7
06 17.08 СВ 1 н/о н/о +10.8 +9.2 90 +10 +10 1018.6 932.7 +8.6 +15.8
07 17.08 С 1 н/о н/о +11.7 +9.4 86 +12 +12 1018.3 932.7
08 17.08 В 1 н/о н/о +13.3 +9.5 78 +14 +14 1017.8 932.7
09 17.08 СВ 1 н/о н/о +15.8 +9.5 66 +17 +17 1016.9 932.5
10 17.08 СЗ 1 н/о н/о +18.6 +10.2 58 +20 +20 1015.6 932.1
11 17.08 штиль 0 н/о н/о +20.6 +10.7 53 +22 +22 комфорт 1014.2 931.4
12 17.08 Ю 1 н/о н/о +23.9 +10.6 43 +25 +25 комфорт 1012.9 931.1
13 17.08 З 1 н/о н/о +24.5 +10.4 41 +26 +26 жарко 1012.5 930.9
14 17.08 СЗ 1 н/о н/о +24.3 +10.6 42 +25 +25 комфорт 1012.6 930.9
15 17.08 СЗ 1 н/о н/о +25.1 +9.4 37 +26 +26 жарко 1012.2 930.7
16 17.08 штиль 0 н/о н/о +23.4 +11.1 46 +26 +26 жарко 1012.2 930.3
17 17.08 штиль 0 н/о н/о +21.7 +11.7 53 +24 +24 комфорт 1012.5 930.2
18 17.08 штиль 0 н/о н/о +20.2 +14.3 69 +22 +22 комфорт 1013.0 930.3 +10.3 +25.9
19 17.08 штиль 0 н/о н/о +18.7 +13.1 70 +19 +19 1014.0 930.8
20 17.08 СВ 1 н/о н/о +18.1 +12.7 71 +19 +19 1013.9 930.5
21 17.08 штиль 0 н/о н/о +17.4 +12.9 75 +17 +17 1014.3 930.7
22 17.08 штиль 0 н/о н/о +16.0 +12.7 81 +16 +16 1014.9 930.8
23 17.08 СВ 1 н/о н/о +16.1 +13.0 82 +17 +17 1014.8 930.8
00 18.08 штиль 0 н/о н/о +15.8 +12.9 83 +16 +16 1015.0 930.9
01 18.08 СВ 1 н/о н/о +15.1 +13.1 88 +16 +16 1015.3 931.0
02 18.08 СВ 1 н/о н/о +15.1 +12.7 86 +16 +16 1015.2 930.9
03 18.08 С 1 н/о н/о +14.9 +12.7 87 +15 +15 1014.6 930.3
04 18.08 С 2 н/о н/о +14.5 +12.5 88 +14 +14 1014.7 930.2
05 18.08 СЗ 1 н/о н/о +14.9 +11.7 81 +15 +15 1014.7 930.3
06 18.08 СВ 2 н/о н/о +16.2 +12.9 81 +16 +16 1014.5 930.5 +14.3 +20.4
07 18.08 СВ 1 н/о н/о +17.8 +12.7 72 +19 +19 1013.9 930.4
08 18.08 СВ 2 н/о н/о +20.4 +12.1 59 +23 +23 комфорт 1013.2 930.5
09 18.08 СВ 1 н/о н/о +22.4 +12.3 53 +25 +25 комфорт 1012.2 930.1
10 18.08 штиль 0 н/о н/о +24.3 +13.8 52 +27 +27 жарко 1011.2 929.7
11 18.08 Ю 1 н/о н/о +26.1 +14.2 48 +28 +28 жарко 1010.1 929.2
12 18.08 штиль 0 н/о н/о +28.2 +13.3 40 +30 +30 жарко 1009.0 928.7
13 18.08 ЮЗ 1 н/о н/о +29.9 +14.0 38 +32 +32 жарко 1008.0 928.2
14 18.08 З 1 н/о н/о +30.3 +14.4 38 +32 +32 жарко 1007.6 927.9
15 18.08 З 1 н/о н/о +30.0 +14.1 38 +32 +32 жарко 1007.3 927.6 0.0
16 18.08 ЮЗ 1 н/о н/о +30.6 +14.6 38 +33 +33 душно 1007.0 927.5
17 18.08 ЮЗ 1 н/о н/о +27.6 +13.5 42 +29 +29 жарко 1008.0 927.6
18 18.08 штиль 0 н/о н/о +24.3 +14.1 53 +27 +27 жарко 1008.9 927.6 +16.1 +30.7 0.0
19 18.08 В 1 н/о н/о +21.8 +15.2 66 +25 +25 комфорт 1010.0 928.0
20 18.08 С 1 н/о н/о +19.8 +15.9 78 +23 +23 комфорт 1011.0 928.4
21 18.08 С 1 н/о н/о +18.8 +15.3 80 +21 +21 комфорт 1011.5 928.6
22 18.08 С 1 н/о н/о +19.4 +14.6 74 +22 +22 комфорт 1011.6 928.8
23 18.08 С 2 н/о н/о +19.9 +14.0 69 +22 +22 комфорт 1011.3 928.6
00 19.08 С 1 н/о н/о +19.8 +14.1 70 +23 +23 комфорт 1011.5 928.8
01 19.08 штиль 0 н/о н/о +18.5 +13.9 75 +19 +19 1012.6 929.5
02 19.08 ЮЗ 1 н/о н/о +17.9 +14.4 80 +19 +19 1014.4 931.0
03 19.08 СЗ 3 н/о н/о +21.6 +14.5 64 +25 +25 комфорт 1015.0 932.5
04 19.08 СЗ 3 н/о н/о +20.5 +15.1 71 +24 +24 комфорт 1016.0 933.2
05 19.08 С 2 н/о н/о +17.5 +14.2 81 +18 +18 1018.4 934.5
06 19.08 З 1 н/о н/о +17.6 +14.4 82 +19 +19 1018.0 934.2 +17.3 +25.0 0.0
07 19.08 С 1 н/о н/о +17.2 +14.9 86 +18 +18 1018.2 934.3 0.0
08 19.08 штиль 0 н/о н/о +18.1 +14.8 81 +18 +18 1018.1 934.4 0.0
09 19.08 штиль 0 н/о н/о +19.8 +15.3 75 +22 +22 комфорт 1017.4 934.3 0.0
10 19.08 штиль 0 н/о н/о +21.4 +15.3 68 +25 +25 комфорт 1016.8 934.1
11 19.08 штиль 0 н/о н/о +23.7 +14.6 57 +26 +26 жарко 1015.8 933.8
12 19.08 З 1 н/о н/о +23.4 +14.6 58 +27 +27 душно 1015.9 933.8 0.0
13 19.08 штиль 0 н/о н/о +22.1 +15.7 67 +26 +26 душно 1016.4 934.0
14 19.08 ЮЗ 1 н/о осадки н/о +19.9 +16.2 79 +23 +23 комфорт 1017.5 934.4 0.5
15 19.08 ЮВ 2 н/о в посл. час осадки н/о +19.2 +17.7 91 +22 +22 комфорт 1017.9 934.6 1
16 19.08 В 1 н/о н/о +18.8 +16.4 86 +21 +21 комфорт 1017.8 934.4
17 19.08 штиль 0 н/о н/о +19.5 +16.0 80 +21 +21 комфорт 1017.4 934.2
18 19.08 С 1 н/о {ливн. осадки} н/о +17.8 +16.5 92 +19 +19 1018.4 934.7 +17.0 +24.3 1
19 19.08 штиль 0 н/о н/о +16.4 +15.8 96 +16 +16 1019.3 935.1
20 19.08 штиль 0 н/о н/о +15.8 +15.4 97 +16 +16 1019.8 935.4
21 19.08 ЮЗ 1 н/о н/о +15.1 +14.6 97 +16 +16 1020.3 935.6
22 19.08 ЮВ 1 н/о н/о +14.4 +13.9 97 +15 +15 1020.8 935.8
23 19.08 штиль 0 н/о н/о +13.6 +13.1 97 +13 +13 1020.9 935.7
00 20.08 штиль 0 н/о н/о +14.3 +13.8 97 +14 +14 1020.6 935.6
01 20.08 штиль 0 н/о н/о +14.2 +13.7 97 +14 +14 1020.7 935.7
02 20.08 штиль 0 н/о н/о +14.3 +13.8 97 +14 +14 1020.5 935.5
03 20.08 штиль 0 н/о в посл. час осадки н/о +14.3 +13.8 97 +14 +14 1020.8 935.8 0.1
04 20.08 СВ 1 н/о н/о +14.4 +13.9 97 +15 +15 1021.5 936.5
05 20.08 штиль 0 н/о н/о +14.4 +13.9 97 +14 +14 1021.4 936.4
06 20.08 штиль 0 н/о {осадки} н/о +15.0 +14.3 96 +15 +15 1021.2 936.4 +13.5 +18.0 0.1
07 20.08 В 1 н/о н/о +16.0 +14.9 93 +17 +17 1020.2 935.8
08 20.08 В 2 н/о н/о +19.3 +14.8 75 +21 +21 комфорт 1018.3 934.9
09 20.08 ЮВ 1 н/о н/о +21.3 +14.4 65 +24 +24 комфорт 1017.6 934.8
10 20.08 ЮВ 1 н/о н/о +21.7 +15.4 67 +25 +25 комфорт 1017.2 934.6
11 20.08 ЮВ 1 н/о н/о +22.7 +14.8 61 +26 +26 жарко 1016.5 934.2
12 20.08 З 1 н/о н/о +22.8 +15.4 63 +27 +27 душно 1016.6 934.3
13 20.08 ЮЗ 1 н/о н/о +23.5 +15.3 60 +26 +26 жарко 1016.3 934.2
14 20.08 штиль 0 н/о н/о +24.8 +15.2 55 +28 +28 жарко 1015.1 933.5
15 20.08 штиль 0 н/о н/о +23.9 +16.5 63 +27 +27 жарко 1015.1 933.3
16 20.08 З 1 н/о н/о +23.0 +16.1 65 +27 +27 душно 1015.4 933.3
17 20.08 З 1 н/о н/о +21.7 +16.5 72 +26 +26 душно 1016.0 933.5
18 20.08 СЗ 2 н/о н/о +20.3 +16.8 80 +24 +24 комфорт 1017.1 934.2 +14.6 +25.4
19 20.08 СЗ 2 н/о н/о +19.8 +16.9 83 +23 +23 комфорт 1018.0 934.9
20 20.08 СЗ 2 н/о н/о +19.3 +16.2 82 +22 +22 комфорт 1019.4 936.0
21 20.08 С 3 н/о в посл. час осадки н/о +16.7 +13.8 83 +16 +16 1021.8 937.4 0.1
22 20.08 СЗ 3 н/о н/о +15.1 +12.4 84 +14 +14 1023.5 938.5 0.0
23 20.08 СЗ 3 н/о в посл. час осадки н/о +14.5 +12.0 85 +14 +14 1024.9 939.6 0.1
00 21.08 СЗ 2 н/о в посл. час осадки {ливн. осадки} н/о +14.1 +11.2 83 +14 +14 1025.8 940.3 0.4
01 21.08 СЗ 2 н/о в посл. час осадки н/о +13.5 +11.5 88 +13 +13 1026.9 941.1 0.3
02 21.08 СЗ 2 н/о н/о +13.4 +11.1 86 +13 +13 1027.2 941.3 0.0
03 21.08 штиль 0 н/о {осадки} н/о +13.3 +12.5 95 +13 +13 1026.9 941.1 0.3
04 21.08 ЮЗ 1 н/о в посл. час осадки н/о +12.8 +11.8 94 +13 +13 1027.6 941.6 0.9
05 21.08 ЮЗ 1 н/о н/о +12.9 +11.9 94 +13 +13 1027.9 941.9
06 21.08 ЮЗ 1 н/о {ливн. осадки} н/о +12.9 +12.1 95 +13 +13 1028.3 942.2 +12.7 +20.5 2
07 21.08 штиль 0 н/о н/о +13.1 +11.6 91 +13 +13 1028.4 942.4 0.0
08 21.08 штиль 0 н/о н/о +13.4 +12.3 93 +13 +13 1028.2 942.3

 

Местоположение метеостанции Бад-Аусзе (Австрия): широта 47.62 долгота 13.78 высота над уровнем моря 664 м.

В архиве по умолчанию представлена погода в Бад-Аусзе за последнюю неделю. Архивные данные за месяц целиком и за предыдущие месяцы, начиная с января 2011 года, Вы можете получить, выбрав интересующий диапазон дат из раскрывающегося списка и нажав кнопку "Ввод!".


*Определитесь, кто Вы:
робот инопланетянин человек

Внимание! Время в таблицах - всемирное. Для получения местного времени необходимо прибавить поправку, которая равна 1 ч.

Смотрите также архив погоды в соседних городах и на ближайших метеорологических станциях:

Погода в Бад-Гойзерне (Австрия) (12 км)
Погода в Бад-Миттерндорфе (Австрия) (14 км)
Погода в Грёбминге (Австрия) (21 км)
Погода в Фойеркогеле (Австрия) (23 км)
Погода в Рамзау (Австрия) (24 км)
Погода в Санкт-Вольфганге (Австрия) (28 км)
Погода в Айген-им-Энсталь (Австрия) (28 км)
Погода в Гмундене (Австрия) (31 км)
Погода в Радштадте (Австрия) (36 км)
Погода в Радштадте (Австрия) (37 км)

Пояснения к столбцам:

Ветер - указаны скорость ветра в м/с - средняя за 10 мин, порывы в срок и между сроками (в фигурных скобках) и направление, откуда дует ветер: С - северный, СВ - северо-восточный, В - восточный, ЮВ - юго-восточный, Ю - южный, ЮЗ - юго-западный, З - западный, СЗ - северо-западный.
Видимость - горизонтальная дальность видимости в метрах или километрах. При видимости от 1 до 10 км при отсутствии осадков обычно наблюдается дымка, при ухудшении видимости до 1 км и менее - туман. В сухую погоду видимость может ухудшаться дымом, пылью или мглою.
Явления - указаны атмосферные явления, наблюдавшиеся в срок или в последний час перед сроком; фигурными скобками обозначены явления, наблюдавшиеся между сроками (за 1-3 часа до срока); квадратными скобками обозначены град или гололедные отложения с указанием их диаметра в мм.
Облачность - указаны через наклонную черту общая и нижняя облачность в баллах и высота нижней границы облаков в метрах; квадратными скобками обозначены формы облаков: Ci - перистые, Cs - перисто-слоистые, Cc - перисто-кучевые, Ac - высококучевые, As - высокослоистые, Sc - слоисто-кучевые, Ns - слоисто-дождевые, Cu - кучевые, Cb - кучево-дождевые. Подробнее классификацию облаков см. в Атласе облаков (PDF).
T - Температура воздуха - температура, измеренная на высоте 2 м над землей.
Td - Температура точки росы - температура, при понижении до которой содержащийся в воздухе водяной пар достигнет насыщения.
f - Относительная влажность воздуха - влажноcть воздуха, измеренная на высоте 2 м над землей.
Te - Эффективная температура - температура, которую ощущает одетый по сезону человек в тени. Характеристика душности погоды. При расчете учитывается влияние влажности воздуха и скорости ветра на теплоощущения человека.
Tes - Эффективная температура на солнце - температура, которую ощущает человек, с поправкой на солнечный нагрев. Характеристика знойности погоды. Зависит от высоты солнца над горизонтом, облачности и скорости ветра. Ночью, в пасмурную погоду, а также при ветре 12 м/с и более поправка равна нулю.
P - Атмосферное давление - приведенное к уровню моря атмосферное давление.
Po - Атмосферное давление - измеренное на уровне метеостанции атмосферное давление.
Tmin - Минимальная температура - минимум температуры воздуха на высоте 2 м над землей.
Tmax - Максимальная температура - максимум температуры воздуха на высоте 2 м над землей.
R - Количество осадков - Количество выпавших осадков за период времени, мм. При наведении курсора мыши на число - период времени, за который выпало указанное количество осадков.
R24 - Количество осадков - Количество выпавших осадков за 24 часа, мм.
S - Снежный покров - Высота снежного покрова, см. При наведении курсора мыши на число - состояние снежного покрова и степень покрытия местности в баллах.